User: anonymous   Login
Location: Unspecified
(0.0000°N, 0.0000°E)
Time: 19:27:26
(UTC+00:00)
Language:

STARLINK-32748 - Orbit

View from above orbital plane
View from above orbital plane
View from above satellite
View from above satellite

Ground track
Ground track

The orbit is defined by the following mean orbital elements,

1 62524U          26145.47277804 +.00000000 +00000-0 +56498-3 0 00004
2 62524  43.0011 146.0634 0001825 262.7557  97.3087 15.27596482    07
Epoch (UTC): 25 May 2026 11:20:48
Eccentricity: 0.0001825
inclination: 43.0011°
perigee height: 482 km
apogee height: 484 km
right ascension of ascending node: 146.0634°
argument of perigee: 262.7557°
revolutions per day: 15.27596482
mean anomaly at epoch: 97.3087°

The dashed part of the orbit path shows where the satellite is in the earth's shadow,  

DLR